Location: Aboncourt
(47.7710°N, 5.9826°E)
Time: 03:12:41
(UTC+00:00)

Cosmos 2237 Rocket - Pass Details

Date: 05 July 2020
Orbit: 834 x 850 km, 71.0° (Epoch: 03 August)

Event Time Altitude Azimuth Distance (km) Brightness Sun altitude
Exits shadow 22:14:59 22° 192° (SSW) 1,776 3.4 -17.0°
Maximum altitude 22:18:43 70° 114° (ESE) 904 2.2 -17.2°
Drops below altitude 10° 22:24:24 10° 31° (NNE) 2,487 5.2 -17.5°
Sets 22:26:52 0° 30° (NNE) 3,427 6.0 -17.6°
